DW2182 Weather Reports


time (UTC)temp
C
wind
direction
speed
KPH
gust
KPH
rain 1hr
cm
rain 24hr
cm
rain mn
cm
humidity
%
barometer
mb
20260508191516 24 135 9.7 19.3 0.00 0.00 0.00 21 1004.0
20260508190517 25 135 14.5 25.7 0.00 0.00 0.00 20 1004.2
20260508185517 25 135 12.9 20.9 0.00 0.00 0.00 20 1004.3
20260508184517 25 135 6.4 19.3 0.00 0.00 0.00 20 1004.2
20260508183516 25 113 11.3 24.1 0.00 0.00 0.00 20 1004.6
20260508182516 25 135 8.0 17.7 0.00 0.00 0.00 20 1004.6
20260508181517 25 113 9.7 19.3 0.00 0.00 0.00 19 1004.8
20260508180517 25 135 12.9 24.1 0.00 0.00 0.00 19 1004.9
20260508175517 25 113 8.0 12.9 0.00 0.00 0.00 18 1005.1
20260508174517 24 135 9.7 20.9 0.00 0.00 0.00 20 1005.4
20260508173517 24 135 8.0 17.7 0.00 0.00 0.00 20 1005.5
20260508172537 24 45 3.2 8.0 0.00 0.00 0.00 21 1005.8
20260508171517 23 135 9.7 17.7 0.00 0.00 0.00 21 1006.0
20260508170517 23 135 11.3 19.3 0.00 0.00 0.00 21 1006.1
20260508165516 23 135 9.7 16.1 0.00 0.00 0.00 22 1006.4
20260508164517 23 113 6.4 14.5 0.00 0.00 0.00 20 1006.5
20260508163517 22 135 9.7 17.7 0.00 0.00 0.00 22 1006.8
20260508162536 21 135 9.7 16.1 0.00 0.00 0.00 24 1006.8
20260508161517 21 135 6.4 14.5 0.00 0.00 0.00 22 1007.0
20260508160536 21 135 9.7 17.7 0.00 0.00 0.00 24 1007.1
20260508155516 21 135 9.7 22.5 0.00 0.00 0.00 23 1007.1
20260508154516 20 135 6.4 12.9 0.00 0.00 0.00 25 1007.2
20260508153516 20 135 8.0 17.7 0.00 0.00 0.00 25 1007.2
20260508152517 20 135 4.8 16.1 0.00 0.00 0.00 27 1007.2
20260508151517 19 113 6.4 19.3 0.00 0.00 0.00 26 1007.4
20260508150537 18 113 8.0 16.1 0.00 0.00 0.00 28 1007.5
20260508145517 17 113 6.4 12.9 0.00 0.00 0.00 30 1007.7
20260508144517 17 135 8.0 16.1 0.00 0.00 0.00 31 1007.8
20260508143536 17 113 6.4 11.3 0.00 0.00 0.00 33 1007.8
20260508142516 16 113 6.4 14.5 0.00 0.00 0.00 35 1007.9
20260508141537 15 113 4.8 9.7 0.00 0.00 0.00 38 1008.0
20260508140517 14 90 4.8 9.7 0.00 0.00 0.00 41 1008.1
20260508135516 13 113 3.2 6.4 0.00 0.00 0.00 42 1008.1
20260508134536 12 90 4.8 9.7 0.00 0.00 0.00 44 1008.1
20260508133536 12 90 6.4 14.5 0.00 0.00 0.00 45 1008.2
20260508132516 11 90 6.4 12.9 0.00 0.00 0.00 45 1008.2
20260508131516 11 90 9.7 14.5 0.00 0.00 0.00 47 1008.3
20260508130516 11 90 6.4 12.9 0.00 0.00 0.00 47 1008.3
20260508125516 10 90 8.0 16.1 0.00 0.00 0.00 49 1008.3
20260508124516 9 90 8.0 12.9 0.00 0.00 0.00 50 1008.3
20260508123516 8 90 6.4 11.3 0.00 0.00 0.00 53 1008.3
20260508122516 7 90 4.8 9.7 0.00 0.00 0.00 53 1008.2
20260508121516 7 90 8.0 12.9 0.00 0.00 0.00 53 1008.3
20260508120517 7 90 9.7 11.3 0.00 0.00 0.00 54 1008.1
20260508115517 6 90 9.7 12.9 0.00 0.00 0.00 55 1008.1
20260508114516 6 113 8.0 11.3 0.00 0.00 0.00 56 1008.0
20260508113536 6 90 8.0 12.9 0.00 0.00 0.00 56 1008.0
20260508112516 6 90 9.7 12.9 0.00 0.00 0.00 57 1008.1
20260508111516 5 90 8.0 12.9 0.00 0.00 0.00 58 1008.2
20260508110516 5 90 4.8 9.7 0.00 0.00 0.00 60 1008.0
20260508105536 5 90 4.8 6.4 0.00 0.00 0.00 61 1008.2
20260508104516 5 90 3.2 4.8 0.00 0.00 0.00 61 1008.1
20260508103536 5 90 3.2 6.4 0.00 0.00 0.00 61 1008.2
20260508102516 4 90 6.4 11.3 0.00 0.00 0.00 63 1008.2
20260508101516 3 90 3.2 6.4 0.00 0.00 0.00 66 1008.2
20260508100516 4 90 4.8 9.7 0.00 0.00 0.00 65 1008.2
20260508095536 4 90 3.2 4.8 0.00 0.00 0.00 63 1008.3
20260508094518 4 0.0 1.6 0.00 0.00 0.00 62 1008.4
20260508093516 4 90 1.6 4.8 0.00 0.00 0.00 61 1008.4
20260508092518 4 0.0 0.0 0.00 0.00 0.00 61 1008.4
20260508091516 4 0.0 0.0 0.00 0.00 0.00 60 1008.6
20260508090536 5 0.0 0.0 0.00 0.00 0.00 61 1008.5
20260508085516 5 0.0 0.0 0.00 0.00 0.00 60 1008.6
20260508084516 5 0.0 0.0 0.00 0.00 0.00 60 1008.6
20260508083516 5 0.0 0.0 0.00 0.00 0.00 60 1008.6
20260508082536 4 0.0 0.0 0.00 0.00 0.00 60 1008.6
20260508081516 4 0.0 0.0 0.00 0.00 0.00 60 1008.7
20260508080516 4 90 3.2 6.4 0.00 0.00 0.00 62 1008.7
20260508075516 4 0.0 4.8 0.00 0.00 0.00 64 1008.7
20260508074516 4 0 1.6 4.8 0.00 0.00 0.00 66 1008.7
20260508073536 4 0.0 0.0 0.00 0.00 0.00 66 1008.9
20260508072516 4 0.0 0.0 0.00 0.00 0.00 66 1008.9
20260508071517 4 0.0 1.6 0.00 0.00 0.00 65 1008.9
20260508070516 5 0.0 1.6 0.00 0.00 0.00 65 1009.0
20260508065516 5 0.0 0.0 0.00 0.00 0.00 65 1009.1
20260508064536 5 0.0 0.0 0.00 0.00 0.00 64 1009.2
20260508063516 5 0.0 0.0 0.00 0.00 0.00 63 1009.2
20260508062516 5 0.0 0.0 0.00 0.00 0.00 63 1009.3
20260508061516 5 0.0 0.0 0.00 0.00 0.00 62 1009.3
20260508060516 5 0.0 0.0 0.00 0.00 0.00 61 1009.3
20260508055516 6 0.0 0.0 0.00 0.00 0.00 61 1009.4
20260508054516 6 0.0 0.0 0.00 0.00 0.00 60 1009.5
20260508053535 6 0.0 0.0 0.00 0.00 0.00 59 1009.6
20260508052516 6 0.0 0.0 0.00 0.00 0.00 58 1009.6
20260508051516 6 0.0 0.0 0.00 0.00 0.00 57 1009.6
20260508050516 7 0.0 0.0 0.00 0.00 0.00 57 1009.5
20260508045536 7 0.0 0.0 0.00 0.00 0.00 56 1009.6
20260508044516 7 0.0 0.0 0.00 0.00 0.00 55 1009.7
20260508043516 7 0.0 0.0 0.00 0.00 0.00 54 1009.7
20260508042516 7 0.0 0.0 0.00 0.00 0.00 54 1009.8
20260508041536 8 0.0 0.0 0.00 0.00 0.00 53 1009.8
20260508040516 8 0.0 0.0 0.00 0.00 0.00 53 1009.9
20260508035516 8 0.0 0.0 0.00 0.00 0.00 52 1009.9
20260508034516 9 0.0 0.0 0.00 0.00 0.00 50 1009.8
20260508033516 10 0.0 0.0 0.00 0.00 0.00 47 1009.9
20260508032516 10 0.0 0.0 0.00 0.00 0.00 44 1009.9
20260508031515 11 0.0 0.0 0.00 0.00 0.00 42 1009.8
20260508030536 11 0.0 0.0 0.00 0.00 0.00 40 1009.8
20260508025536 11 0.0 0.0 0.00 0.00 0.00 38 1009.9
20260508024515 12 0.0 0.0 0.00 0.00 0.00 37 1009.8
20260508023515 12 0.0 0.0 0.00 0.00 0.00 36 1009.7
20260508022536 13 0.0 0.0 0.00 0.00 0.00 37 1009.7
20260508021516 13 0.0 1.6 0.00 0.00 0.00 32 1009.6
20260508020536 14 0.0 0.0 0.00 0.00 0.00 31 1009.5
20260508015515 15 0.0 3.2 0.00 0.00 0.00 29 1009.3
20260508014535 15 0.0 1.6 0.00 0.00 0.00 29 1009.2
20260508013535 15 0 1.6 6.4 0.00 0.00 0.00 27 1009.1
20260508012516 16 158 3.2 9.7 0.00 0.00 0.00 27 1009.0
20260508011516 16 135 4.8 9.7 0.00 0.00 0.00 26 1009.0
20260508010536 16 135 4.8 11.3 0.00 0.00 0.00 27 1008.8
20260508005536 16 135 3.2 8.0 0.00 0.00 0.00 26 1008.7
20260508004516 16 0 4.8 8.0 0.00 0.00 0.00 25 1008.5
20260508003515 16 135 6.4 12.9 0.00 0.00 0.00 26 1008.4
20260508002516 16 135 4.8 8.0 0.00 0.00 0.00 25 1008.3
20260508001535 16 135 4.8 11.3 0.00 0.00 0.00 24 1008.5
20260508000515 17 135 4.8 11.3 0.00 0.00 0.00 24 1008.4
20260507235515 17 135 4.8 11.3 0.00 0.00 0.00 25 1008.5
20260507234516 17 0 3.2 9.7 0.00 0.00 0.00 24 1008.5
20260507233515 17 135 4.8 11.3 0.00 0.00 0.00 24 1008.6
20260507232516 17 135 6.4 14.5 0.00 0.00 0.00 23 1008.6
20260507231517 17 135 9.7 19.3 0.00 0.00 0.00 23 1008.7
20260507230537 17 135 9.7 20.9 0.00 0.00 0.00 22 1008.6
20260507225516 17 158 8.0 25.7 0.00 0.00 0.00 23 1008.8
20260507224517 17 135 4.8 14.5 0.00 0.00 0.00 24 1008.8
20260507223515 17 158 9.7 20.9 0.00 0.00 0.00 22 1009.0
20260507222517 18 135 11.3 22.5 0.00 0.00 0.00 24 1009.0
20260507221516 18 135 9.7 17.7 0.00 0.00 0.00 23 1009.1
20260507220537 18 135 11.3 20.9 0.00 0.00 0.00 22 1009.3
20260507215517 18 135 8.0 16.1 0.00 0.00 0.00 21 1009.4
20260507214518 18 135 6.4 14.5 0.00 0.00 0.00 24 1009.4
20260507213517 18 135 8.0 16.1 0.00 0.00 0.00 22 1009.7
20260507212517 18 113 4.8 14.5 0.00 0.00 0.00 24 1009.6
20260507211517 18 135 6.4 16.1 0.00 0.00 0.00 23 1009.8
20260507210517 18 135 8.0 16.1 0.00 0.00 0.00 24 1009.6
20260507205517 18 135 6.4 16.1 0.00 0.00 0.00 22 1009.8
20260507204517 18 135 8.0 22.5 0.00 0.00 0.00 23 1009.9
20260507203517 17 135 4.8 14.5 0.00 0.00 0.00 23 1010.0
20260507202517 18 135 8.0 19.3 0.00 0.00 0.00 23 1010.2
20260507201517 18 135 8.0 17.7 0.00 0.00 0.00 23 1010.3
20260507200517 17 135 6.4 11.3 0.00 0.00 0.00 23 1010.4
20260507195517 18 135 11.3 17.7 0.00 0.00 0.00 23 1010.6
20260507194517 18 135 4.8 11.3 0.00 0.00 0.00 26 1010.6
20260507193517 18 135 8.0 16.1 0.00 0.00 0.00 26 1010.8
20260507192517 18 135 8.0 20.9 0.00 0.00 0.00 25 1010.7